Vorticity
9 9 9 8 8 8 8 8 8 8 8 7 7 7 6 6 6 6 6 6 6 5 5 5 5 5 5 6 6 6 6 6 7 7 7 7 7 7 7 6 6 6 6 5 5 5 5 5 4 4 4 4 4 4 4 4 5 5 5 5 5 5 5 6 6 6 6 6 6 6 6 6 5 5 5 5 5 5 5 5 5 5 4 4 4 4 4 4 4 4 4 4 4 4 4 4 4 4 4 4 4 4 4
9 9 9 9 8 8 8 8 8 8 8 8 8 7 7 7 7 6 6 6 6 6 6 6 6 6 6 6 6 6 7 7 7 7 7 7 7 7 6 6 5 5 5 5 4 4 4 4 4 3 3 4 4 4 4 5 4 4 4 5 5 5 5 5 5 5 5 5 5 5 5 5 5 5 4 4 4 4 4 4 4 4 3 3 3 3 3 3 3 3 3 3 3 3 3 3 3 3 3 3 3 4 4
8 9 9 9 8 8 8 8 8 8 8 8 8 8 8 7 7 7 7 7 7 7 7 7 7 7 7 7 7 7 7 7 8 8 8 7 7 6 6 5 5 5 4 4 4 4 4 4 4 3 3 4 4 4 4 5 4 4 4 4 4 4 5 5 5 5 5 5 4 4 4 4 4 4 4 4 4 4 3 3 3 3 3 3 3 3 3 3 3 3 3 3 3 3 3 3 3 3 3 3 3 4 4
7 8 9 9 9 9 8 8 8 8 8 8 8 8 8 8 8 7 7 7 7 7 7 7 7 7 7 7 7 7 7 7 8 8 8 7 7 6 6 5 5 4 4 4 4 4 4 4 4 4 4 4 4 4 4 5 4 4 4 4 4 4 4 4 4 4 4 4 4 4 4 4 4 4 4 4 4 3 3 3 3 3 3 3 3 3 3 3 3 3 3 3 3 3 3 3 3 3 3 3 3 4 4
6 7 8 9 9 9 9 8 8 8 8 8 8 8 8 8 8 8 8 8 7 7 8 8 8 8 8 8 8 8 7 8 8 8 7 7 6 6 5 5 4 4 4 4 4 4 4 4 4 4 4 5 5 5 5 5 5 5 4 4 4 4 4 4 4 4 4 4 4 3 3 3 3 3 3 3 3 4 4 4 4 4 4 4 4 4 4 4 4 4 3 3 3 3 3 3 3 3 4 4 4 4 4
6 6 7 8 8 9 9 9 9 8 8 8 8 8 8 8 8 8 8 8 8 8 8 8 8 8 8 8 8 8 8 8 7 7 7 6 6 5 5 4 4 4 4 4 4 4 5 5 5 5 5 5 5 5 5 5 5 5 4 4 4 4 4 4 4 4 4 4 3 3 3 3 3 3 3 3 4 4 4 4 4 4 4 4 4 4 4 4 4 4 4 4 3 3 3 3 4 4 4 4 4 4 4
5 6 6 7 8 8 9 9 9 9 9 8 8 8 8 8 8 8 8 8 8 7 7 8 8 8 8 8 8 8 8 7 7 7 6 6 5 5 4 4 4 4 4 4 4 5 5 5 5 5 5 5 5 5 5 5 5 5 4 4 4 4 4 4 4 4 4 4 4 4 4 4 4 4 4 4 4 4 4 4 4 4 4 4 4 4 3 3 3 3 3 3 3 3 3 3 4 4 4 4 4 4 4
5 5 5 6 6 7 8 9 9 9 9 9 9 8 8 8 8 8 8 8 8 7 7 8 8 8 8 8 8 8 8 7 7 7 6 6 5 5 4 4 4 4 4 4 4 4 4 5 5 5 5 5 4 4 4 4 5 5 5 5 5 5 5 5 5 5 5 5 4 4 4 4 4 4 4 4 4 4 4 4 4 4 4 4 3 3 3 3 3 3 3 3 3 3 3 3 4 4 4 4 4 4 4
5 5 5 5 6 6 7 8 8 9 9 9 9 9 9 8 8 8 8 8 8 8 8 8 8 8 8 8 8 8 7 7 7 6 6 5 5 4 4 4 4 4 4 4 4 4 4 4 4 4 4 4 4 4 5 5 5 5 5 5 5 5 5 5 5 5 5 5 5 5 5 5 5 5 5 5 5 4 4 4 4 4 4 3 3 3 3 3 3 3 3 3 3 3 3 3 4 4 4 4 4 4 3
6 5 5 5 5 6 6 6 7 8 8 9 9 9 9 9 9 9 8 8 8 8 8 8 8 8 8 8 8 7 7 7 7 6 6 5 5 4 4 4 4 4 4 4 4 4 4 4 4 4 4 4 4 4 5 5 5 6 6 6 6 6 6 6 6 6 6 6 6 6 5 5 5 5 5 5 5 5 5 4 4 4 4 4 3 3 3 3 3 4 4 4 4 4 4 4 4 4 4 4 4 3 3
6 6 6 6 6 6 6 6 6 7 7 8 8 9 9 9 9 9 9 9 8 8 8 8 8 8 8 8 8 7 7 7 7 6 6 5 5 4 4 4 4 4 4 4 4 4 4 4 4 4 4 4 5 5 5 5 6 6 6 6 6 6 6 6 6 6 6 6 6 6 6 5 5 5 5 5 5 5 5 4 4 4 4 4 4 4 4 4 4 4 4 4 4 4 4 4 4 4 4 3 3 3 3
6 6 6 6 6 6 6 6 6 6 6 6 7 8 8 9 9 10 10 9 9 9 9 8 8 8 8 8 8 7 7 7 7 6 6 5 5 5 4 4 4 4 4 4 4 4 4 4 4 4 4 4 5 5 5 6 6 6 7 7 7 7 7 6 6 6 6 6 6 6 6 5 5 5 5 5 5 5 5 4 4 4 4 4 4 4 4 4 4 4 4 4 4 4 5 5 4 4 4 3 3 3 3
6 6 6 6 6 6 6 6 6 6 6 6 6 7 7 8 9 9 10 10 10 9 9 9 9 9 8 8 8 8 7 7 7 7 6 6 5 5 4 4 4 4 4 4 4 4 4 4 4 4 3 4 4 5 5 6 6 6 6 7 7 7 7 7 6 6 6 6 6 6 6 5 5 5 4 4 4 4 4 4 4 4 4 4 4 4 4 4 4 4 4 4 4 5 5 5 5 5 4 4 4 3 3
6 6 6 6 6 5 5 5 6 6 6 6 6 6 6 7 7 8 9 9 9 10 10 9 9 9 9 9 8 8 8 8 7 7 7 6 6 5 5 4 4 4 4 4 4 4 4 4 4 4 3 4 4 4 5 5 5 6 6 6 6 7 7 6 6 6 6 6 6 6 6 6 5 5 4 4 4 4 4 4 4 4 4 4 4 4 4 4 4 4 4 4 4 4 5 5 5 5 5 5 4 4 3
6 6 5 5 5 5 5 5 6 6 6 6 6 6 6 6 6 6 7 8 8 9 9 9 10 9 9 9 9 9 8 8 8 7 7 7 6 6 5 5 5 4 4 4 4 4 4 4 4 4 4 3 3 4 4 4 5 5 5 5 6 6 6 6 6 6 6 5 5 5 5 5 5 5 5 4 4 4 4 4 4 4 4 4 4 4 4 4 4 4 4 4 4 4 4 5 5 5 5 5 5 4 4
6 6 5 5 5 5 5 5 6 6 6 6 6 6 6 6 5 6 6 6 7 7 8 8 9 9 9 9 9 9 9 9 8 8 8 7 7 6 6 6 5 5 4 4 4 4 4 4 4 4 4 4 4 3 4 4 4 4 4 5 5 5 5 5 5 5 5 5 5 4 4 4 5 5 5 4 4 4 4 4 4 4 4 4 4 4 5 5 5 4 4 4 4 4 4 4 4 4 4 5 5 4 4
6 5 5 5 5 5 5 6 6 6 7 7 7 7 6 6 6 5 5 5 6 6 6 7 7 8 9 9 9 9 9 9 9 9 8 8 8 7 7 6 6 5 5 5 4 4 4 4 4 4 4 4 4 4 4 4 4 4 4 4 4 4 5 5 5 5 5 5 4 4 4 4 4 4 4 4 4 4 4 4 4 3 3 4 4 4 4 4 4 5 4 4 4 4 4 4 4 4 4 4 4 4 4
6 5 5 5 5 5 6 6 6 7 7 7 7 7 7 6 6 6 5 5 5 5 5 6 6 6 7 8 8 9 9 9 9 9 9 9 8 8 8 7 7 6 6 5 5 5 5 4 4 4 4 4 4 4 4 4 4 3 3 3 4 4 4 4 4 4 4 4 4 4 4 4 4 4 4 4 4 4 4 4 4 3 3 3 3 3 3 4 4 4 4 4 4 4 3 3 3 3 3 3 4 4 4
6 5 5 5 6 6 6 6 7 7 7 7 7 7 7 6 6 6 6 6 6 6 5 5 5 5 6 6 7 7 8 8 9 9 9 9 9 9 8 8 8 7 7 6 6 6 5 5 5 4 4 4 4 4 4 4 4 3 3 3 3 3 3 3 4 4 4 4 4 4 4 4 4 4 4 4 4 4 4 4 4 4 3 3 3 3 3 3 3 3 3 4 4 4 4 3 3 3 3 3 3 3 3
6 5 5 6 6 6 6 6 7 7 7 7 7 7 7 6 6 6 6 6 6 6 6 5 5 5 5 5 6 6 6 7 7 8 8 8 9 9 9 9 8 8 7 7 6 6 6 5 5 5 4 4 4 4 4 4 4 3 3 3 3 3 3 3 3 3 3 3 3 3 3 3 3 3 3 3 3 3 3 3 4 3 3 3 3 3 3 3 3 3 3 3 3 4 4 4 3 3 3 2 2 2 2
6 5 6 6 6 7 6 6 6 6 6 7 7 6 6 6 6 6 6 6 6 6 6 6 6 6 5 5 5 5 5 5 6 6 7 7 8 8 8 9 9 8 8 8 7 6 6 5 5 5 4 4 4 4 4 4 4 4 3 3 3 3 3 2 2 2 3 3 3 3 3 3 3 3 3 3 3 3 3 3 3 3 3 3 3 3 3 3 3 2 2 2 2 3 3 3 3 3 3 3 2 2 2
7 6 7 7 7 7 7 7 7 6 6 6 6 6 6 6 5 5 6 6 6 6 6 6 6 5 6 6 6 5 5 5 5 5 5 6 6 7 7 8 8 8 9 9 8 8 7 6 6 5 5 4 4 4 4 4 4 4 4 4 4 3 3 3 2 2 2 2 2 2 2 2 3 3 3 2 2 2 2 3 3 3 3 3 3 3 3 3 3 2 2 2 2 2 2 3 3 3 3 3 3 2 2
7 7 7 8 8 8 7 7 7 6 6 6 6 6 5 5 5 5 5 5 5 5 6 6 5 5 5 5 5 5 5 5 5 5 4 4 5 5 6 6 6 7 7 8 8 8 8 7 7 6 6 5 5 5 5 5 4 4 4 4 4 4 4 3 3 3 3 2 2 2 2 2 2 2 2 2 2 2 2 2 2 2 2 2 2 2 2 2 2 2 2 2 2 2 2 2 2 2 3 3 3 3 3
6 6 6 6 6 6 6 6 6 6 6 6 6 6 6 5 5 5 4 4 4 4 5 5 5 5 5 5 5 4 4 4 4 4 4 4 4 4 4 5 5 5 6 6 6 7 7 7 7 6 6 6 6 6 6 5 5 5 5 4 4 4 4 4 4 3 3 3 3 2 2 2 2 2 2 2 2 2 2 2 2 2 2 2 2 2 2 2 2 2 2 2 2 2 2 2 2 2 2 2 3 3 3
5 5 4 4 3 3 4 4 5 5 5 6 6 5 5 6 5 5 4 4 4 4 4 4 4 4 5 5 4 4 4 4 4 4 4 4 4 4 4 4 4 4 4 5 5 5 5 6 6 6 6 6 6 6 6 6 6 6 5 5 5 5 4 4 4 4 4 4 3 3 3 2 2 2 2 2 2 2 2 2 1 1 1 2 2 2 2 2 2 2 2 2 2 2 2 2 2 2 2 2 2 2 3
5 5 3 3 2 2 2 3 3 4 4 4 5 5 5 5 6 6 5 5 5 4 4 4 4 5 5 5 5 5 5 5 5 5 5 5 5 4 4 4 4 4 4 4 4 4 4 5 5 5 5 5 6 6 6 6 6 6 6 6 6 5 5 5 5 5 5 4 4 4 4 4 3 3 3 2 2 2 2 2 2 2 2 2 2 2 2 2 2 2 2 2 2 2 2 2 2 2 2 2 2 2 2
6 6 4 4 3 2 2 3 3 3 3 3 4 5 5 4 5 6 6 6 6 5 5 5 5 5 6 6 6 6 6 6 6 6 5 6 6 6 5 5 5 5 5 5 5 5 5 5 5 5 5 5 5 5 6 6 6 6 6 6 6 6 6 6 6 6 6 6 5 5 5 5 5 4 4 4 4 3 3 3 3 3 3 2 2 2 2 2 2 2 2 2 2 2 2 2 2 2 2 2 2 2 2
6 5 5 5 5 5 4 3 3 3 3 3 4 4 5 3 3 4 5 5 5 5 5 5 5 5 5 6 6 6 6 6 6 6 6 6 6 7 7 6 6 6 6 6 6 6 5 5 5 5 5 5 5 6 6 6 6 6 6 6 6 6 6 6 6 6 6 7 7 6 6 6 6 6 6 6 5 5 5 5 5 5 5 4 4 4 4 4 4 4 4 4 4 3 3 3 3 3 3 3 3 3 3
6 6 6 6 7 7 6 5 5 4 4 4 4 4 4 3 3 2 3 3 4 4 4 5 5 5 5 5 5 5 5 5 6 6 6 6 6 7 7 7 7 7 7 7 7 7 7 7 7 6 6 6 6 6 6 6 6 6 6 6 6 6 6 7 7 7 7 7 7 7 7 7 7 7 7 7 7 7 7 7 6 6 6 6 6 6 6 6 6 6 6 5 5 5 5 5 5 5 5 5 5 5 4
7 6 6 7 7 7 7 7 6 5 5 5 5 4 3 4 4 3 3 3 3 3 4 4 4 5 5 5 5 5 5 5 5 5 5 6 6 6 7 7 7 8 8 8 8 8 8 8 8 8 8 8 7 7 7 7 7 7 7 6 6 7 7 7 7 7 7 7 7 7 7 7 7 7 7 8 8 8 8 8 7 7 7 7 7 7 8 7 7 7 7 7 7 7 7 7 7 6 6 6 6 6 6
7 7 7 7 7 7 7 7 6 6 6 6 5 5 4 4 4 4 4 4 3 3 3 3 3 4 4 4 4 4 4 4 4 4 4 4 4 5 5 6 6 6 7 7 7 7 8 8 8 8 9 9 9 9 8 8 8 8 8 8 8 8 8 7 7 7 7 7 7 7 7 7 7 7 7 8 8 8 8 8 8 8 8 8 8 8 8 8 8 8 8 8 8 8 8 8 8 7 7 7 7 7 7
7 7 7 7 7 7 7 7 7 6 6 6 6 5 5 5 5 5 4 4 4 4 4 4 3 3 3 3 3 4 4 4 4 3 3 3 3 4 4 4 4 4 5 5 5 6 6 6 6 7 7 7 7 8 8 8 8 8 8 9 9 9 8 8 8 8 8 8 8 7 7 7 7 7 8 8 8 8 8 8 8 8 8 8 8 8 8 8 8 8 8 8 8 8 8 8 8 8 8 8 8 8 8
8 8 8 8 8 8 8 7 7 7 7 7 7 7 7 7 7 7 6 6 6 6 6 5 5 5 5 5 5 5 5 5 5 5 5 4 4 4 4 4 4 4 4 4 4 4 4 4 4 4 5 5 5 5 5 6 6 6 7 7 7 7 8 8 8 8 8 8 8 8 8 8 8 8 8 8 8 8 8 8 7 7 7 8 8 7 7 7 7 7 7 8 8 8 8 8 8 7 7 7 7 7 7
9 9 10 10 10 10 10 9 9 9 10 10 10 10 10 10 10 10 10 10 10 10 10 10 10 9 9 9 9 9 9 9 8 8 8 8 7 7 7 7 7 7 6 6 6 6 5 5 5 5 4 4 4 4 4 4 4 4 5 5 5 5 6 6 6 7 7 7 7 7 7 8 8 8 8 8 8 8 8 8 8 8 7 7 7 7 7 7 7 7 7 7 7 7 7 7 7 7 7 7 7 7 7
11 11 12 12 12 12 12 12 12 12 12 13 13 13 13 13 13 13 14 14 14 14 13 13 13 13 13 13 13 12 12 12 12 12 12 12 11 11 11 11 11 11 11 11 10 10 10 10 10 9 9 8 8 7 7 7 6 6 6 6 6 6 6 6 6 6 6 6 7 7 7 7 7 7 7 7 7 8 8 8 8 8 8 8 8 8 8 8 8 8 7 7 7 7 7 7 7 7 7 7 7 7 7
12 12 12 13 13 13 13 13 13 14 14 14 14 14 14 14 14 14 14 14 14 13 13 13 13 13 13 13 13 13 13 13 13 12 12 12 12 12 12 12 12 12 12 12 12 13 13 13 13 13 13 12 12 12 12 12 11 11 11 11 10 10 9 9 9 9 9 8 8 8 8 8 8 8 8 8 8 8 8 8 8 8 8 8 8 8 8 8 8 8 8 8 8 8 8 8 8 8 7 7 7 7 7
10 10 11 11 12 12 12 12 12 12 11 11 11 11 11 10 10 10 10 9 9 9 9 9 9 9 9 9 9 9 9 9 9 9 9 9 9 9 9 9 9 9 9 9 9 10 10 10 10 10 11 11 11 11 11 12 12 12 12 12 12 12 12 12 12 12 12 12 11 11 11 11 10 10 10 10 10 10 10 10 10 9 9 9 9 9 9 9 9 9 9 9 9 9 9 8 8 8 8 8 8 8 8
9 9 9 9 9 9 8 8 8 7 7 7 7 6 6 6 6 6 6 6 5 6 6 6 6 6 6 6 6 6 6 6 6 6 6 6 6 6 6 6 6 6 5 5 6 6 6 5 5 6 6 6 6 6 6 7 7 7 8 8 9 9 10 10 10 10 11 11 11 11 11 11 11 11 11 11 11 11 10 10 10 10 10 10 10 10 10 10 10 10 10 9 9 9 9 9 9 9 9 9 9 9 9
8 8 7 7 6 6 6 5 5 5 5 5 5 5 5 5 5 5 6 6 6 6 7 7 7 7 6 6 6 6 6 6 6 6 6 6 6 5 5 5 5 5 5 5 5 5 5 5 4 4 4 4 4 4 4 4 4 4 4 4 5 5 5 6 6 6 6 7 7 7 7 8 8 8 8 8 9 9 9 9 9 9 9 9 9 9 9 9 9 9 9 9 9 9 9 9 9 9 9 9 9 9 9
7 6 6 6 5 5 5 5 5 6 6 6 6 6 6 7 7 7 7 7 7 8 8 9 9 9 8 8 8 8 8 8 8 8 8 8 8 7 7 7 7 7 7 7 7 7 6 6 6 6 6 6 5 5 5 5 4 4 4 4 4 4 4 4 4 4 4 4 4 4 4 4 4 5 5 5 5 5 6 6 6 6 6 6 6 7 7 7 7 7 7 7 7 7 7 7 7 7 7 7 7 8 8
5 5 5 5 6 6 6 6 6 7 7 7 7 7 8 8 8 8 8 8 8 7 7 8 9 8 8 8 8 8 8 8 8 8 8 8 8 8 9 9 9 9 9 9 9 8 8 8 8 8 8 8 8 8 7 7 7 7 6 6 6 5 5 5 5 4 4 4 4 3 3 3 3 3 3 3 3 3 3 3 3 3 3 4 4 4 4 4 4 4 4 4 4 4 4 5 5 5 5 5 5 5 5
6 6 6 7 7 7 7 7 7 7 7 7 7 7 7 7 7 7 7 7 6 6 6 6 6 6 6 6 6 6 7 7 7 7 7 7 8 8 8 8 8 9 9 9 9 9 9 9 10 10 10 10 10 10 9 9 9 9 9 9 8 8 8 8 7 7 7 6 6 6 5 5 5 4 4 4 3 3 3 3 3 2 2 2 2 2 2 2 3 3 3 3 3 3 3 3 3 3 3 3 3 3 3
7 7 7 7 7 7 7 7 7 6 6 6 6 6 6 5 5 5 5 5 5 5 5 5 5 5 5 5 5 6 6 6 6 6 6 6 7 7 7 7 8 8 8 8 8 8 9 9 9 9 9 10 10 10 10 10 10 10 10 10 10 10 10 10 10 10 9 9 9 9 8 8 8 7 7 7 6 6 6 5 5 5 4 4 4 4 3 3 3 3 3 3 3 3 3 3 3 3 3 3 3 3 3
6 6 6 6 5 5 5 5 5 5 5 5 4 4 4 4 4 4 4 4 5 5 5 5 5 5 5 5 6 6 6 6 6 6 6 6 6 7 7 7 7 7 7 7 7 7 8 8 8 8 8 8 9 9 9 9 9 9 9 10 10 10 10 10 10 10 10 10 10 10 10 10 10 10 10 10 9 9 9 9 8 8 8 8 7 7 7 6 6 6 6 5 5 5 5 5 5 4 4 4 4 4 4
4 4 4 4 4 4 4 4 4 4 4 4 4 4 4 4 4 5 5 5 5 5 6 6 6 6 6 6 6 6 6 6 7 7 7 7 7 7 7 7 7 7 7 7 7 7 7 7 7 8 8 8 8 8 8 8 8 8 8 9 9 9 9 9 9 9 9 9 10 10 10 10 10 10 10 10 10 10 10 10 10 10 10 10 10 10 10 9 9 9 9 9 8 8 8 8 7 7 7 7 7 6 6
3 3 4 4 4 4 4 5 5 5 5 5 5 5 5 5 5 5 6 6 6 6 6 7 7 6 7 7 7 7 7 7 7 7 7 7 7 8 7 7 7 7 8 8 8 8 8 8 8 8 8 8 8 8 8 8 8 8 8 8 8 8 8 9 9 9 9 9 9 9 9 9 9 9 9 9 9 9 9 9 10 10 10 10 10 10 10 10 10 10 10 10 10 10 10 10 10 10 10 10 10 9 9
4 4 4 4 4 4 4 5 5 5 5 5 5 5 6 6 6 6 7 7 7 7 7 7 7 7 7 7 8 8 8 8 8 8 8 8 8 8 8 8 8 8 8 8 8 8 8 8 8 8 8 8 8 8 8 8 8 8 8 8 8 8 8 8 8 8 8 8 8 8 9 8 8 8 8 8 8 8 8 8 8 9 9 9 9 9 9 9 9 10 10 10 10 10 11 11 11 11 11 11 11 11 11
4 4 4 4 4 4 4 4 4 5 5 6 6 6 6 6 7 7 7 7 7 7 7 8 8 8 8 8 8 8 8 8 8 8 8 7 7 7 7 8 8 8 8 8 8 8 7 7 7 7 7 7 8 8 8 8 8 8 8 8 8 8 8 8 8 8 8 8 8 8 8 8 8 8 8 8 8 8 8 8 8 9 9 9 9 9 9 9 9 9 9 9 9 9 10 10 10 10 11 11 11 11 11
4 4 4 4 4 4 4 4 4 5 6 6 6 6 6 7 7 7 7 8 8 8 8 8 8 8 8 8 8 8 7 7 7 7 7 7 7 7 6 7 7 7 7 7 7 7 7 7 7 7 7 7 7 7 7 7 8 8 8 8 8 8 8 8 8 8 7 7 8 8 8 8 8 8 8 9 9 9 9 9 9 9 9 9 9 9 9 9 9 9 9 9 9 9 9 9 10 10 10 10 10 10 10
4 4 4 4 4 4 4 4 4 5 6 6 6 7 7 7 8 8 7 8 8 8 7 7 8 8 7 7 7 7 7 6 6 6 6 7 6 6 6 6 6 6 6 5 6 6 6 6 7 7 7 6 6 6 6 6 7 7 7 7 7 7 7 7 7 7 7 7 7 7 7 7 7 8 8 8 8 8 8 8 8 8 8 8 9 9 9 9 9 9 9 9 9 9 9 10 10 10 10 10 10 10 10
4 4 4 4 4 4 4 4 5 6 6 7 7 8 8 8 8 8 8 8 7 7 7 7 7 7 7 6 6 6 6 6 6 6 6 6 6 6 5 6 5 5 5 5 5 6 6 6 6 6 5 5 5 5 5 5 5 6 6 6 6 6 7 7 7 7 7 7 7 7 7 7 7 7 7 8 8 8 8 8 8 8 8 8 8 8 8 9 9 9 9 9 9 9 10 10 10 10 10 10 10 10 10
3 4 4 4 4 5 4 5 6 7 7 7 8 9 9 8 8 8 8 8 7 7 7 6 6 6 7 7 6 6 6 6 6 6 5 5 5 5 5 5 6 6 6 6 5 4 4 5 5 4 5 5 5 5 5 5 5 5 5 5 5 6 6 6 6 6 6 7 7 7 7 7 8 8 8 8 8 8 8 8 8 8 8 8 8 8 8 8 8 9 9 9 9 10 10 10 10 10 10 10 10 10 10
3 4 4 5 5 5 6 7 7 8 8 8 8 8 8 8 8 8 8 7 7 7 7 7 6 5 5 6 6 6 6 6 6 6 6 5 5 5 6 6 6 7 6 7 7 5 1 3 4 4 4 5 6 6 5 5 6 6 5 6 6 6 6 7 7 7 7 8 8 8 8 8 9 9 8 9 9 8 8 9 9 9 9 9 8 8 8 9 9 9 9 9 10 10 10 10 10 10 10 10 10 10 10
4 4 5 6 6 6 8 8 8 8 9 9 8 7 7 8 7 7 7 7 7 6 6 7 6 6 5 6 6 6 6 6 6 6 7 6 6 6 8 7 6 6 6 6 8 9 7 4 5 5 4 5 6 6 6 6 6 6 6 7 7 7 7 7 8 8 8 8 8 8 8 8 8 8 8 8 8 8 8 9 9 9 9 9 9 9 9 10 10 10 10 10 10 10 10 11 11 11 11 11 11 11 11
4 5 6 7 7 8 9 9 9 9 9 9 8 8 7 7 7 7 6 6 6 6 6 6 6 6 6 6 6 6 6 6 6 6 6 7 7 7 7 7 7 7 7 6 7 8 10 8 7 6 5 4 5 6 6 6 6 7 7 7 7 7 7 7 7 8 8 8 8 8 8 7 7 7 8 8 8 8 8 9 9 9 9 10 10 10 10 10 10 11 11 11 11 11 11 11 11 11 12 12 12 12 12
5 6 7 8 9 9 10 9 9 9 9 8 8 7 7 7 7 6 6 6 6 6 6 6 6 7 7 6 7 7 7 6 6 6 6 7 7 7 7 8 9 10 11 10 9 7 8 9 9 9 6 4 5 7 7 6 6 7 7 7 7 7 7 7 7 7 8 8 8 8 8 8 7 7 7 7 8 8 8 9 9 9 9 9 10 10 10 11 11 11 11 11 11 11 12 12 12 12 12 12 12 12 12
6 7 9 9 10 10 10 9 9 9 8 8 7 7 7 7 7 7 7 7 7 7 7 6 6 7 7 7 7 7 7 7 6 6 7 7 7 7 8 8 9 9 8 8 8 8 8 7 9 11 10 6 4 6 8 8 7 7 7 7 7 7 7 7 7 7 7 7 8 8 8 8 8 8 8 8 8 8 8 8 9 9 9 10 10 10 10 11 11 11 11 11 12 12 12 12 13 13 13 12 12 12 12
7 8 9 10 10 10 9 9 8 8 8 7 7 7 7 7 7 7 7 7 7 7 7 7 7 7 7 7 7 7 7 7 7 7 7 6 7 7 7 8 8 8 8 8 8 9 10 9 9 10 13 10 6 4 5 8 8 7 6 6 7 7 7 7 7 7 7 7 8 8 8 8 9 9 9 8 8 8 8 8 9 9 10 10 10 11 11 11 11 11 11 11 12 12 12 13 13 13 13 13 12 12 12
7 9 10 10 10 9 9 8 8 7 7 7 6 6 7 7 7 7 7 7 7 7 7 7 8 8 7 7 7 8 8 8 8 7 6 7 7 7 7 6 6 6 7 7 8 8 9 9 10 10 12 14 12 7 2 4 6 8 7 6 6 7 7 7 7 7 7 7 8 8 9 9 9 9 9 9 9 9 9 9 9 10 10 10 11 11 11 11 11 11 11 11 12 12 13 13 13 13 13 13 13 12 12
7 9 9 9 9 8 8 7 7 6 6 6 6 6 6 7 7 7 7 7 7 7 7 7 8 8 7 7 8 8 7 7 8 7 7 7 7 7 7 7 7 6 6 6 7 7 7 8 8 9 10 12 14 14 9 4 3 5 8 8 7 7 7 7 7 7 8 7 7 8 8 8 9 9 10 10 10 9 9 9 9 10 10 10 11 11 11 11 11 11 12 12 12 13 13 13 13 13 13 13 12 12 12
7 8 8 8 8 8 7 7 6 6 6 6 6 6 6 6 6 7 7 7 7 7 7 7 7 7 8 8 8 8 7 7 7 8 8 8 7 7 7 7 7 7 7 7 7 7 7 7 7 7 8 9 10 12 13 9 6 5 5 6 7 8 8 7 7 7 8 8 8 8 8 8 8 9 9 9 9 9 9 9 9 10 10 10 11 11 11 11 11 11 12 12 13 13 13 13 13 13 13 12 12 12 12
Height
3191 3191 3191 3191 3190 3190 3190 3190 3190 3190 3190 3190 3190 3190 3190 3190 3190 3190 3190 3190 3189 3189 3189 3189 3189 3189 3189 3189 3189 3189 3189 3189 3189 3189 3189 3189 3189 3189 3189 3189 3189 3189 3190 3190 3190 3190 3189 3189 3189 3189 3189 3189 3189 3189 3189 3189 3189 3189 3189 3189 3189 3189 3189 3189 3189 3189 3189 3189 3189 3189 3188 3188 3188 3188 3188 3188 3188 3188 3188 3188 3188 3188 3187 3187 3187 3187 3187 3187 3187 3187 3186 3187 3187 3187 3186 3186 3186 3186 3186 3186 3186 3186 3186
3191 3191 3190 3190 3190 3190 3190 3190 3190 3190 3190 3190 3190 3190 3190 3190 3190 3190 3190 3189 3189 3189 3189 3189 3189 3189 3189 3189 3189 3189 3189 3189 3189 3189 3189 3189 3189 3189 3189 3189 3189 3189 3189 3189 3190 3189 3189 3189 3189 3189 3189 3189 3189 3189 3189 3189 3189 3189 3189 3189 3189 3189 3189 3189 3189 3189 3189 3188 3188 3188 3188 3188 3188 3188 3188 3188 3188 3188 3188 3188 3188 3187 3187 3187 3187 3187 3187 3187 3187 3186 3186 3186 3186 3186 3186 3186 3186 3186 3186 3186 3186 3186 3186
3191 3190 3190 3190 3190 3190 3190 3190 3190 3190 3190 3190 3190 3190 3190 3189 3189 3189 3189 3189 3189 3189 3189 3189 3189 3189 3188 3188 3188 3188 3188 3188 3188 3188 3189 3189 3189 3189 3189 3189 3189 3189 3189 3189 3189 3189 3189 3189 3189 3189 3189 3189 3189 3189 3189 3189 3189 3189 3188 3188 3188 3188 3188 3188 3188 3188 3188 3188 3188 3188 3188 3188 3188 3187 3187 3187 3187 3187 3187 3187 3187 3187 3187 3187 3187 3187 3187 3186 3186 3186 3186 3186 3186 3186 3186 3186 3186 3186 3186 3186 3186 3185 3185
3190 3190 3190 3190 3190 3189 3189 3189 3189 3189 3189 3189 3189 3189 3189 3189 3189 3189 3189 3189 3189 3189 3189 3189 3188 3188 3188 3188 3188 3188 3188 3188 3188 3188 3188 3188 3188 3189 3189 3189 3189 3189 3189 3189 3189 3189 3189 3189 3189 3189 3188 3189 3189 3189 3189 3189 3188 3188 3188 3188 3188 3188 3188 3188 3188 3188 3188 3188 3188 3187 3187 3187 3187 3187 3187 3187 3187 3187 3187 3187 3187 3187 3186 3186 3186 3186 3186 3186 3186 3186 3186 3186 3186 3186 3186 3185 3185 3185 3185 3185 3185 3185 3185
3190 3190 3190 3190 3189 3189 3189 3189 3189 3189 3189 3189 3189 3189 3189 3189 3189 3188 3188 3188 3188 3188 3188 3188 3188 3188 3188 3188 3188 3188 3188 3188 3188 3188 3188 3188 3188 3188 3188 3189 3189 3189 3189 3189 3189 3189 3189 3189 3189 3189 3188 3188 3188 3189 3188 3188 3188 3188 3188 3188 3188 3188 3188 3188 3188 3188 3187 3187 3187 3187 3187 3187 3187 3187 3186 3186 3186 3186 3186 3186 3186 3186 3186 3186 3186 3186 3186 3186 3186 3186 3185 3185 3185 3185 3185 3185 3185 3185 3185 3184 3184 3184 3184
3190 3190 3190 3189 3189 3189 3189 3189 3189 3188 3188 3188 3188 3188 3188 3188 3188 3188 3188 3188 3188 3188 3188 3188 3188 3188 3188 3187 3187 3187 3187 3187 3187 3188 3188 3188 3188 3188 3188 3188 3188 3189 3189 3189 3189 3189 3189 3189 3189 3188 3188 3188 3188 3188 3188 3188 3188 3188 3188 3188 3188 3188 3188 3187 3187 3187 3187 3187 3187 3187 3186 3186 3186 3186 3186 3186 3186 3186 3186 3186 3186 3186 3186 3186 3185 3185 3185 3185 3185 3185 3185 3185 3185 3185 3184 3184 3184 3184 3184 3184 3184 3184 3184
3190 3190 3189 3189 3189 3189 3189 3188 3188 3188 3188 3188 3188 3188 3188 3188 3188 3188 3187 3187 3187 3187 3187 3187 3187 3187 3187 3187 3187 3187 3187 3187 3187 3187 3187 3187 3187 3188 3188 3188 3188 3188 3188 3188 3188 3189 3189 3188 3188 3188 3188 3188 3188 3188 3188 3188 3188 3188 3187 3187 3187 3187 3187 3187 3187 3187 3187 3186 3186 3186 3186 3186 3186 3186 3186 3186 3185 3185 3185 3185 3185 3185 3185 3185 3185 3185 3185 3184 3184 3184 3184 3184 3184 3184 3184 3184 3184 3183 3183 3183 3183 3183 3183
3190 3189 3189 3189 3189 3189 3188 3188 3188 3188 3188 3188 3188 3187 3187 3187 3187 3187 3187 3187 3187 3187 3187 3187 3186 3186 3186 3186 3187 3187 3187 3187 3187 3187 3187 3187 3187 3187 3187 3187 3187 3188 3188 3188 3188 3188 3188 3188 3188 3188 3188 3188 3187 3187 3187 3187 3187 3187 3187 3187 3187 3187 3187 3186 3186 3186 3186 3186 3186 3186 3186 3186 3185 3185 3185 3185 3185 3185 3185 3185 3185 3184 3184 3184 3184 3184 3184 3184 3184 3184 3183 3183 3183 3183 3183 3183 3183 3183 3183 3182 3182 3182 3182
3189 3189 3189 3189 3189 3188 3188 3188 3188 3188 3187 3187 3187 3187 3187 3187 3187 3187 3187 3186 3186 3186 3186 3186 3186 3186 3186 3186 3186 3186 3186 3186 3186 3186 3186 3187 3187 3187 3187 3187 3187 3187 3187 3187 3187 3187 3187 3187 3187 3187 3187 3187 3187 3187 3187 3187 3186 3186 3186 3186 3186 3186 3186 3186 3186 3186 3186 3186 3186 3185 3185 3185 3185 3185 3185 3184 3184 3184 3184 3184 3184 3184 3184 3184 3183 3183 3183 3183 3183 3183 3183 3183 3182 3182 3182 3182 3182 3182 3182 3182 3182 3181 3181
3189 3189 3189 3189 3188 3188 3188 3188 3188 3187 3187 3187 3187 3187 3187 3186 3186 3186 3186 3186 3186 3186 3186 3186 3186 3186 3186 3186 3186 3186 3186 3186 3186 3186 3186 3186 3186 3186 3186 3186 3186 3186 3187 3187 3187 3187 3187 3187 3187 3186 3186 3186 3186 3186 3186 3186 3186 3186 3186 3186 3186 3185 3185 3185 3185 3185 3185 3185 3185 3185 3184 3184 3184 3184 3184 3184 3184 3183 3183 3183 3183 3183 3183 3183 3183 3183 3182 3182 3182 3182 3182 3182 3182 3181 3181 3181 3181 3181 3181 3181 3181 3181 3181
3189 3188 3188 3188 3188 3188 3188 3188 3187 3187 3187 3187 3187 3186 3186 3186 3186 3186 3186 3186 3186 3186 3186 3185 3185 3185 3185 3185 3185 3185 3185 3185 3185 3185 3186 3186 3186 3186 3186 3186 3186 3186 3186 3186 3186 3186 3186 3186 3186 3186 3186 3186 3186 3186 3186 3185 3185 3185 3185 3185 3185 3184 3184 3184 3184 3184 3184 3184 3184 3184 3183 3183 3183 3183 3183 3183 3183 3182 3182 3182 3182 3182 3182 3182 3182 3182 3181 3181 3181 3181 3181 3181 3181 3181 3181 3180 3180 3180 3180 3180 3180 3180 3180
3188 3188 3188 3188 3188 3188 3187 3187 3187 3187 3187 3186 3186 3186 3186 3186 3186 3186 3186 3185 3185 3185 3185 3185 3185 3185 3185 3185 3185 3185 3185 3185 3185 3185 3185 3185 3185 3185 3185 3185 3185 3185 3185 3185 3185 3186 3185 3185 3185 3185 3185 3185 3185 3185 3185 3184 3184 3184 3184 3184 3184 3183 3183 3183 3183 3183 3183 3183 3182 3182 3182 3182 3182 3182 3182 3182 3181 3181 3181 3181 3181 3181 3181 3181 3181 3181 3181 3180 3180 3180 3180 3180 3180 3180 3179 3179 3179 3179 3179 3179 3179 3179 3179
3187 3187 3187 3187 3187 3187 3187 3187 3187 3186 3186 3186 3186 3186 3186 3186 3185 3185 3185 3185 3185 3185 3185 3184 3184 3184 3184 3184 3184 3184 3184 3184 3184 3184 3184 3184 3184 3184 3184 3184 3184 3184 3185 3185 3185 3185 3184 3184 3184 3184 3184 3184 3184 3183 3183 3183 3183 3183 3183 3183 3182 3182 3182 3182 3182 3182 3181 3181 3181 3181 3181 3181 3181 3181 3181 3181 3180 3180 3180 3180 3180 3180 3180 3179 3179 3179 3179 3179 3179 3179 3179 3179 3179 3178 3178 3178 3178 3178 3178 3178 3177 3177 3177
3187 3187 3187 3187 3186 3186 3186 3186 3186 3186 3186 3186 3186 3185 3185 3185 3185 3185 3184 3184 3184 3184 3184 3184 3184 3184 3184 3183 3183 3183 3183 3183 3183 3183 3183 3183 3183 3183 3183 3183 3183 3183 3183 3183 3183 3183 3183 3183 3183 3183 3183 3183 3183 3182 3182 3182 3182 3182 3182 3181 3181 3181 3181 3181 3181 3181 3180 3180 3180 3180 3180 3180 3179 3179 3179 3179 3179 3179 3179 3178 3178 3178 3178 3178 3178 3178 3178 3177 3177 3177 3177 3177 3177 3177 3177 3177 3176 3176 3176 3176 3176 3176 3176
3186 3186 3186 3186 3186 3186 3186 3186 3186 3185 3185 3185 3185 3185 3185 3184 3184 3184 3184 3184 3183 3183 3183 3183 3183 3183 3183 3183 3183 3183 3182 3182 3182 3182 3182 3182 3182 3182 3182 3182 3182 3182 3182 3182 3182 3182 3182 3182 3182 3182 3182 3181 3181 3181 3181 3181 3181 3181 3181 3180 3180 3180 3180 3179 3179 3179 3179 3179 3179 3178 3178 3178 3178 3178 3177 3177 3177 3177 3177 3177 3177 3177 3176 3176 3176 3176 3176 3176 3176 3176 3176 3176 3176 3176 3175 3175 3175 3175 3175 3175 3175 3175 3175
3186 3186 3186 3185 3185 3185 3185 3185 3185 3185 3184 3184 3184 3184 3184 3184 3183 3183 3183 3183 3183 3182 3182 3182 3182 3182 3182 3182 3182 3181 3181 3181 3181 3181 3181 3181 3181 3181 3181 3181 3181 3181 3181 3181 3181 3181 3181 3181 3181 3181 3180 3180 3180 3180 3180 3179 3179 3179 3179 3179 3179 3178 3178 3178 3178 3177 3177 3177 3177 3177 3176 3176 3176 3176 3176 3176 3176 3176 3176 3175 3175 3175 3175 3175 3175 3174 3174 3174 3174 3174 3174 3174 3174 3174 3174 3174 3174 3173 3173 3173 3173 3173 3173
3185 3185 3185 3185 3184 3184 3184 3184 3184 3184 3183 3183 3183 3183 3183 3183 3182 3182 3182 3182 3182 3182 3181 3181 3181 3181 3181 3181 3181 3181 3181 3181 3181 3180 3180 3180 3180 3180 3180 3180 3180 3180 3180 3180 3180 3179 3179 3179 3179 3179 3179 3179 3178 3178 3178 3178 3178 3178 3177 3177 3177 3177 3176 3176 3176 3176 3176 3176 3176 3175 3175 3175 3175 3175 3174 3174 3174 3174 3174 3174 3174 3173 3173 3173 3173 3173 3173 3173 3172 3172 3172 3172 3172 3172 3172 3172 3172 3172 3172 3172 3171 3171 3171
3184 3184 3184 3184 3184 3183 3183 3183 3183 3183 3183 3182 3182 3182 3182 3182 3181 3181 3181 3181 3181 3181 3181 3181 3180 3180 3180 3180 3180 3179 3179 3179 3179 3179 3179 3179 3179 3179 3179 3179 3179 3178 3178 3178 3178 3178 3178 3178 3177 3177 3177 3177 3177 3177 3176 3176 3176 3176 3176 3176 3176 3175 3175 3175 3175 3174 3174 3174 3174 3174 3174 3173 3173 3173 3173 3173 3172 3172 3172 3172 3172 3172 3172 3171 3171 3171 3171 3171 3171 3171 3171 3171 3171 3170 3170 3170 3170 3170 3170 3170 3170 3170 3170
3183 3183 3183 3183 3183 3183 3182 3182 3182 3182 3182 3181 3181 3181 3181 3181 3181 3181 3180 3180 3180 3180 3180 3179 3179 3179 3179 3179 3179 3178 3178 3178 3178 3178 3178 3178 3178 3177 3177 3177 3177 3177 3177 3177 3177 3176 3176 3176 3176 3176 3176 3175 3175 3175 3175 3175 3175 3174 3174 3174 3174 3174 3173 3173 3173 3173 3173 3172 3172 3172 3172 3172 3171 3171 3171 3171 3171 3171 3171 3171 3171 3170 3170 3170 3170 3170 3170 3170 3170 3169 3169 3169 3169 3169 3169 3169 3169 3169 3169 3169 3168 3168 3168
3182 3182 3182 3182 3182 3182 3181 3181 3181 3181 3181 3181 3181 3180 3180 3180 3180 3179 3179 3179 3179 3179 3178 3178 3178 3178 3178 3177 3177 3177 3177 3177 3177 3176 3176 3176 3176 3176 3176 3176 3176 3176 3175 3175 3175 3175 3175 3175 3174 3174 3174 3173 3173 3173 3173 3173 3173 3173 3172 3172 3172 3172 3172 3172 3171 3171 3171 3171 3171 3171 3171 3170 3170 3170 3170 3170 3170 3169 3169 3169 3169 3169 3169 3169 3168 3168 3168 3168 3168 3168 3168 3168 3167 3167 3167 3167 3167 3167 3167 3167 3167 3167 3167
3181 3181 3181 3181 3181 3181 3181 3181 3180 3180 3180 3180 3179 3179 3179 3179 3179 3178 3178 3178 3178 3178 3177 3177 3177 3177 3176 3176 3176 3176 3176 3176 3176 3175 3175 3175 3175 3175 3174 3174 3174 3174 3174 3174 3173 3173 3173 3173 3172 3172 3172 3172 3171 3171 3171 3171 3171 3171 3171 3171 3171 3170 3170 3170 3170 3170 3170 3169 3169 3169 3169 3169 3169 3168 3168 3168 3168 3168 3168 3167 3167 3167 3167 3167 3167 3167 3167 3166 3166 3166 3166 3166 3166 3166 3166 3166 3166 3166 3166 3166 3166 3166 3165
3180 3180 3180 3180 3180 3180 3180 3180 3179 3179 3179 3179 3178 3178 3178 3178 3177 3177 3177 3177 3176 3176 3176 3176 3176 3176 3175 3175 3175 3175 3175 3174 3174 3174 3174 3174 3173 3173 3173 3173 3172 3172 3172 3172 3171 3171 3171 3171 3171 3171 3170 3170 3170 3170 3169 3169 3169 3169 3169 3169 3169 3168 3168 3168 3168 3168 3168 3168 3167 3167 3167 3167 3167 3167 3166 3166 3166 3166 3166 3166 3166 3166 3166 3166 3165 3165 3165 3165 3165 3165 3165 3165 3165 3165 3164 3164 3164 3164 3164 3164 3164 3164 3164
3180 3180 3179 3179 3179 3179 3179 3178 3178 3178 3178 3178 3177 3177 3177 3176 3176 3176 3176 3176 3176 3175 3175 3175 3175 3174 3174 3174 3174 3173 3173 3173 3173 3173 3172 3172 3172 3172 3171 3171 3171 3171 3171 3170 3170 3170 3170 3169 3169 3169 3168 3168 3168 3168 3168 3167 3167 3167 3167 3167 3167 3166 3166 3166 3166 3166 3166 3166 3166 3166 3166 3165 3165 3165 3165 3165 3165 3165 3164 3164 3164 3164 3164 3164 3164 3163 3163 3163 3163 3163 3163 3163 3163 3163 3163 3163 3163 3163 3162 3162 3162 3162 3162
3179 3179 3179 3179 3178 3178 3178 3177 3177 3177 3177 3176 3176 3176 3176 3175 3175 3175 3175 3175 3174 3174 3174 3174 3173 3173 3173 3173 3172 3172 3172 3172 3171 3171 3171 3171 3171 3171 3170 3170 3170 3169 3169 3169 3168 3168 3168 3168 3167 3167 3167 3166 3166 3166 3166 3166 3166 3165 3165 3165 3165 3165 3165 3164 3164 3164 3164 3164 3164 3164 3164 3163 3163 3163 3163 3163 3163 3162 3162 3162 3162 3162 3162 3162 3162 3162 3161 3161 3161 3161 3161 3161 3161 3161 3161 3161 3161 3161 3161 3161 3161 3161 3161
3178 3178 3178 3177 3177 3177 3176 3176 3176 3176 3176 3175 3175 3175 3174 3174 3174 3174 3174 3173 3173 3173 3173 3172 3172 3172 3172 3171 3171 3171 3171 3171 3170 3170 3170 3170 3169 3169 3169 3168 3168 3168 3167 3167 3167 3166 3166 3166 3166 3166 3165 3165 3165 3165 3164 3164 3164 3164 3163 3163 3163 3163 3162 3162 3162 3162 3162 3162 3161 3161 3161 3161 3161 3161 3161 3161 3161 3161 3161 3160 3160 3160 3160 3160 3160 3160 3160 3160 3159 3159 3159 3159 3159 3159 3159 3159 3159 3159 3159 3159 3159 3159 3159
3177 3176 3176 3176 3176 3176 3175 3175 3175 3175 3175 3174 3174 3174 3173 3173 3173 3173 3172 3172 3172 3172 3172 3171 3171 3171 3171 3171 3170 3170 3170 3169 3169 3169 3168 3168 3168 3168 3167 3167 3167 3166 3166 3166 3166 3165 3165 3164 3164 3164 3164 3163 3163 3163 3163 3162 3162 3162 3161 3161 3161 3161 3161 3160 3160 3160 3160 3160 3159 3159 3159 3159 3159 3159 3159 3159 3159 3158 3158 3158 3158 3158 3158 3158 3158 3157 3157 3157 3157 3157 3157 3157 3157 3157 3157 3157 3157 3157 3157 3156 3156 3156 3156
3176 3175 3175 3175 3175 3175 3174 3174 3174 3174 3174 3173 3173 3173 3173 3172 3172 3172 3171 3171 3171 3171 3171 3171 3170 3170 3170 3170 3169 3169 3168 3168 3168 3167 3167 3167 3167 3166 3166 3166 3165 3165 3165 3164 3164 3164 3163 3163 3163 3162 3162 3162 3161 3161 3161 3161 3161 3160 3160 3159 3159 3159 3159 3158 3158 3158 3158 3157 3157 3157 3157 3157 3156 3156 3156 3156 3156 3156 3156 3156 3156 3156 3156 3156 3155 3155 3155 3155 3155 3155 3155 3155 3155 3155 3155 3154 3154 3154 3154 3154 3154 3154 3154
3175 3174 3174 3174 3174 3173 3173 3173 3173 3173 3173 3173 3172 3172 3172 3171 3171 3171 3171 3171 3170 3170 3170 3170 3169 3169 3169 3168 3168 3168 3167 3167 3167 3166 3166 3166 3166 3165 3165 3165 3164 3164 3163 3163 3163 3162 3162 3162 3161 3161 3161 3161 3160 3160 3159 3159 3159 3158 3158 3158 3157 3157 3157 3157 3156 3156 3156 3156 3155 3155 3155 3155 3154 3154 3154 3154 3154 3154 3154 3154 3153 3153 3153 3153 3153 3153 3153 3153 3153 3152 3152 3152 3152 3152 3152 3152 3152 3152 3152 3152 3152 3151 3151
3173 3173 3173 3173 3172 3172 3172 3172 3172 3172 3172 3171 3171 3171 3171 3171 3171 3170 3170 3170 3169 3169 3169 3168 3168 3168 3168 3167 3167 3167 3166 3166 3166 3165 3165 3165 3164 3164 3164 3163 3163 3163 3162 3162 3161 3161 3161 3161 3160 3160 3160 3159 3159 3158 3158 3158 3157 3157 3156 3156 3156 3156 3155 3155 3155 3154 3154 3154 3153 3153 3153 3152 3152 3152 3152 3152 3151 3151 3151 3151 3151 3151 3151 3151 3151 3151 3150 3150 3150 3150 3150 3150 3150 3150 3150 3149 3149 3149 3149 3149 3149 3149 3149
3172 3171 3171 3171 3171 3171 3171 3171 3171 3171 3171 3170 3170 3170 3170 3170 3169 3169 3169 3169 3168 3168 3168 3167 3167 3167 3166 3166 3166 3166 3165 3165 3165 3164 3164 3163 3163 3163 3162 3162 3162 3161 3161 3161 3160 3160 3160 3159 3159 3159 3158 3158 3157 3157 3156 3156 3156 3156 3155 3155 3154 3154 3154 3153 3153 3152 3152 3152 3151 3151 3151 3151 3150 3150 3150 3150 3149 3149 3149 3149 3149 3149 3148 3148 3148 3148 3148 3148 3148 3147 3147 3147 3147 3147 3147 3147 3147 3147 3147 3146 3146 3146 3146
3171 3170 3170 3170 3170 3170 3170 3169 3169 3169 3169 3169 3169 3168 3168 3168 3168 3168 3167 3167 3167 3167 3166 3166 3166 3165 3165 3165 3164 3164 3163 3163 3163 3163 3162 3162 3161 3161 3161 3161 3160 3160 3160 3159 3159 3159 3158 3158 3157 3157 3157 3156 3156 3156 3155 3155 3154 3154 3154 3153 3153 3152 3152 3152 3151 3151 3151 3150 3150 3149 3149 3148 3148 3148 3147 3147 3147 3146 3146 3146 3146 3146 3146 3146 3146 3145 3145 3145 3145 3145 3145 3145 3145 3145 3144 3144 3144 3144 3144 3144 3144 3144 3144
3169 3169 3169 3169 3168 3168 3168 3168 3168 3167 3167 3167 3167 3167 3167 3166 3166 3166 3166 3166 3165 3165 3165 3164 3164 3164 3163 3163 3163 3162 3161 3161 3161 3161 3161 3160 3160 3159 3159 3159 3159 3158 3158 3157 3157 3157 3156 3156 3156 3155 3155 3154 3154 3154 3153 3153 3152 3152 3152 3151 3151 3151 3150 3150 3150 3149 3149 3148 3148 3147 3147 3146 3146 3146 3145 3145 3144 3144 3144 3143 3143 3143 3143 3143 3143 3143 3143 3143 3142 3142 3142 3142 3142 3141 3141 3141 3141 3141 3141 3141 3141 3141 3141
3168 3168 3167 3167 3167 3167 3167 3166 3166 3166 3166 3166 3166 3166 3165 3165 3165 3165 3164 3164 3164 3163 3163 3162 3162 3162 3161 3161 3161 3160 3160 3159 3159 3159 3158 3158 3158 3157 3157 3157 3156 3156 3156 3156 3155 3155 3154 3154 3154 3153 3153 3152 3152 3151 3151 3151 3150 3150 3150 3150 3149 3149 3148 3148 3147 3147 3147 3146 3146 3145 3145 3144 3144 3143 3143 3142 3142 3141 3141 3141 3141 3140 3140 3140 3140 3140 3140 3140 3140 3139 3139 3139 3139 3139 3139 3139 3139 3138 3138 3138 3138 3138 3138
3167 3167 3166 3166 3166 3166 3166 3165 3165 3165 3165 3164 3164 3164 3164 3163 3163 3163 3162 3162 3162 3161 3161 3161 3160 3160 3160 3159 3159 3158 3158 3157 3157 3156 3156 3156 3156 3155 3155 3154 3154 3154 3153 3153 3153 3153 3152 3152 3151 3151 3151 3150 3150 3149 3149 3148 3148 3148 3147 3147 3147 3146 3146 3146 3145 3145 3144 3144 3144 3143 3143 3142 3142 3141 3141 3140 3139 3139 3139 3138 3138 3137 3137 3137 3137 3136 3136 3136 3136 3136 3136 3136 3136 3136 3136 3136 3136 3136 3136 3136 3135 3135 3135
3166 3166 3166 3165 3165 3165 3165 3164 3164 3164 3163 3163 3163 3162 3162 3162 3161 3161 3161 3161 3160 3160 3159 3159 3158 3158 3158 3157 3157 3156 3156 3155 3155 3155 3154 3154 3153 3153 3152 3152 3152 3151 3151 3151 3151 3150 3150 3150 3149 3149 3148 3148 3147 3147 3146 3146 3146 3146 3145 3145 3144 3144 3143 3143 3143 3142 3142 3141 3141 3141 3141 3140 3139 3139 3138 3137 3137 3136 3136 3136 3135 3135 3134 3134 3134 3134 3133 3133 3133 3133 3133 3133 3133 3133 3133 3133 3132 3132 3132 3132 3132 3132 3132
3165 3164 3164 3164 3164 3164 3163 3163 3163 3162 3162 3162 3161 3161 3161 3160 3160 3160 3159 3159 3158 3158 3158 3157 3157 3156 3156 3156 3155 3155 3154 3154 3153 3153 3152 3152 3151 3151 3151 3150 3150 3149 3149 3149 3148 3148 3147 3147 3147 3146 3146 3146 3145 3145 3144 3144 3144 3143 3143 3142 3142 3141 3141 3141 3140 3140 3140 3139 3139 3138 3138 3137 3137 3136 3136 3135 3135 3134 3133 3133 3132 3132 3132 3131 3131 3131 3130 3130 3130 3130 3130 3130 3130 3130 3130 3130 3130 3130 3129 3129 3129 3129 3129
3163 3163 3163 3163 3163 3162 3162 3162 3161 3161 3161 3161 3160 3160 3159 3159 3158 3158 3157 3157 3157 3156 3156 3156 3155 3155 3154 3154 3154 3153 3152 3152 3151 3151 3151 3150 3149 3149 3148 3148 3147 3147 3147 3146 3146 3145 3145 3145 3144 3144 3143 3143 3143 3142 3142 3142 3141 3141 3140 3140 3139 3139 3139 3138 3138 3138 3137 3137 3136 3136 3135 3135 3134 3133 3133 3132 3132 3131 3131 3130 3130 3129 3129 3129 3128 3128 3127 3127 3127 3127 3127 3127 3126 3126 3126 3126 3126 3126 3126 3126 3126 3126 3126
3162 3162 3162 3162 3161 3161 3161 3161 3160 3160 3159 3159 3159 3158 3158 3157 3157 3156 3156 3156 3155 3155 3154 3154 3154 3153 3153 3152 3152 3151 3151 3150 3150 3149 3149 3148 3147 3147 3146 3146 3145 3145 3145 3144 3143 3143 3142 3142 3142 3141 3141 3140 3140 3140 3139 3139 3139 3138 3138 3137 3137 3136 3136 3136 3136 3135 3135 3134 3134 3133 3132 3132 3131 3131 3130 3130 3129 3129 3128 3128 3127 3127 3126 3126 3126 3125 3125 3124 3124 3124 3124 3124 3123 3123 3123 3123 3123 3123 3123 3123 3123 3123 3123
3162 3162 3162 3161 3161 3160 3160 3160 3159 3159 3158 3158 3157 3157 3156 3156 3155 3155 3154 3154 3154 3153 3153 3152 3152 3151 3151 3151 3150 3149 3149 3148 3147 3147 3146 3146 3146 3145 3145 3144 3143 3143 3142 3141 3141 3141 3140 3140 3139 3139 3138 3138 3137 3137 3137 3136 3136 3136 3135 3135 3134 3134 3133 3133 3133 3132 3132 3131 3131 3131 3130 3129 3129 3128 3127 3127 3126 3126 3125 3125 3124 3124 3124 3123 3123 3122 3122 3121 3121 3121 3121 3121 3120 3120 3120 3120 3120 3120 3120 3120 3120 3120 3120
3162 3162 3161 3161 3160 3160 3159 3159 3158 3158 3157 3157 3156 3156 3155 3155 3154 3154 3153 3152 3152 3151 3151 3150 3150 3150 3149 3149 3148 3147 3147 3146 3146 3145 3144 3144 3143 3143 3142 3142 3141 3141 3140 3139 3139 3138 3138 3137 3137 3136 3136 3135 3135 3134 3134 3134 3133 3133 3132 3132 3131 3131 3131 3130 3130 3130 3129 3129 3128 3128 3127 3126 3126 3125 3125 3124 3124 3123 3122 3122 3121 3121 3121 3120 3120 3120 3119 3119 3118 3118 3118 3117 3117 3117 3117 3117 3117 3117 3116 3116 3116 3116 3116
3161 3161 3161 3160 3160 3159 3159 3158 3158 3157 3156 3156 3156 3155 3154 3153 3153 3152 3151 3151 3151 3150 3149 3148 3148 3147 3147 3147 3146 3146 3145 3144 3143 3143 3142 3142 3141 3141 3140 3140 3139 3138 3138 3137 3136 3136 3136 3135 3135 3134 3133 3133 3132 3132 3131 3131 3131 3130 3130 3129 3129 3128 3128 3127 3127 3126 3126 3126 3126 3125 3125 3124 3123 3123 3122 3121 3121 3120 3120 3119 3119 3118 3118 3117 3117 3116 3116 3116 3115 3115 3115 3114 3114 3114 3114 3114 3113 3113 3113 3113 3113 3113 3113
3161 3160 3160 3159 3159 3158 3157 3157 3156 3156 3155 3155 3154 3153 3153 3152 3151 3151 3150 3150 3149 3148 3148 3147 3146 3145 3145 3145 3144 3144 3143 3142 3141 3141 3140 3140 3139 3139 3138 3138 3137 3136 3136 3135 3134 3134 3133 3133 3132 3131 3131 3131 3130 3130 3129 3129 3128 3127 3127 3126 3126 3126 3125 3125 3124 3124 3123 3123 3122 3122 3121 3121 3121 3120 3119 3119 3118 3117 3117 3116 3116 3115 3115 3114 3114 3114 3113 3113 3112 3112 3111 3111 3111 3111 3110 3110 3110 3110 3110 3110 3110 3109 3109
3160 3159 3159 3158 3157 3157 3156 3156 3155 3155 3154 3153 3153 3152 3151 3151 3150 3149 3149 3148 3147 3147 3146 3145 3144 3144 3143 3143 3142 3141 3141 3140 3140 3139 3138 3137 3137 3136 3136 3135 3135 3134 3133 3132 3132 3131 3131 3130 3130 3129 3128 3128 3127 3127 3126 3126 3125 3125 3124 3124 3123 3123 3122 3122 3121 3121 3120 3120 3119 3119 3118 3118 3118 3117 3116 3116 3115 3114 3114 3113 3113 3112 3112 3111 3111 3111 3110 3110 3109 3109 3108 3108 3108 3107 3107 3107 3106 3106 3106 3106 3106 3106 3106
3158 3158 3157 3157 3156 3156 3155 3155 3154 3154 3153 3152 3151 3151 3150 3149 3148 3147 3147 3146 3146 3145 3144 3144 3143 3142 3141 3141 3140 3139 3139 3138 3137 3136 3136 3135 3135 3134 3134 3133 3132 3131 3131 3130 3129 3129 3128 3127 3127 3126 3126 3125 3124 3124 3124 3123 3122 3122 3121 3121 3121 3120 3120 3119 3118 3117 3117 3116 3116 3116 3115 3115 3114 3114 3113 3112 3112 3111 3111 3110 3110 3109 3108 3108 3107 3107 3107 3106 3106 3106 3105 3105 3105 3104 3104 3103 3103 3103 3102 3102 3102 3102 3102
3157 3157 3156 3156 3156 3155 3154 3154 3153 3152 3152 3151 3150 3150 3149 3148 3147 3146 3145 3144 3143 3143 3142 3141 3141 3140 3139 3138 3138 3137 3136 3135 3134 3134 3133 3133 3132 3132 3131 3131 3130 3129 3128 3128 3127 3126 3125 3125 3124 3123 3123 3122 3121 3121 3121 3120 3120 3119 3118 3118 3117 3117 3116 3116 3115 3115 3114 3113 3112 3112 3112 3111 3111 3110 3110 3109 3108 3108 3107 3107 3106 3106 3105 3105 3104 3104 3103 3103 3102 3102 3102 3101 3101 3101 3100 3100 3100 3099 3099 3099 3098 3098 3098
3156 3156 3156 3155 3154 3154 3153 3152 3152 3151 3151 3150 3149 3148 3147 3146 3145 3144 3143 3142 3142 3141 3140 3140 3139 3138 3137 3136 3136 3135 3134 3133 3132 3131 3131 3130 3130 3129 3129 3128 3127 3127 3126 3126 3125 3124 3123 3122 3122 3121 3120 3119 3118 3118 3117 3117 3116 3116 3116 3115 3114 3114 3113 3113 3112 3111 3111 3110 3109 3109 3108 3108 3107 3107 3106 3106 3105 3105 3104 3103 3103 3102 3102 3101 3101 3100 3100 3099 3099 3099 3098 3098 3098 3097 3097 3096 3096 3096 3096 3095 3095 3094 3094
3156 3155 3154 3154 3153 3152 3152 3151 3151 3150 3149 3148 3148 3147 3146 3145 3144 3143 3142 3141 3140 3139 3138 3138 3137 3136 3136 3135 3134 3133 3132 3131 3130 3129 3128 3128 3127 3127 3126 3126 3125 3125 3124 3123 3122 3121 3121 3120 3119 3119 3118 3117 3116 3115 3115 3114 3113 3113 3112 3112 3111 3111 3110 3110 3109 3108 3107 3106 3106 3106 3105 3105 3104 3103 3102 3102 3101 3101 3101 3100 3100 3099 3098 3097 3097 3096 3096 3096 3095 3095 3095 3094 3094 3094 3093 3093 3093 3092 3092 3091 3091 3091 3091
3155 3154 3153 3152 3152 3151 3150 3150 3149 3148 3147 3147 3146 3145 3144 3143 3142 3141 3141 3140 3139 3138 3137 3136 3136 3135 3134 3134 3133 3131 3130 3129 3128 3127 3126 3126 3125 3124 3123 3123 3122 3122 3121 3121 3120 3119 3118 3118 3117 3116 3115 3114 3113 3112 3112 3111 3111 3110 3110 3109 3109 3108 3107 3106 3106 3105 3104 3103 3103 3102 3102 3101 3101 3100 3099 3098 3098 3097 3097 3096 3096 3096 3095 3094 3093 3093 3092 3092 3091 3091 3091 3091 3090 3090 3090 3089 3089 3089 3088 3088 3087 3087 3087
3153 3153 3152 3151 3151 3150 3149 3148 3147 3146 3146 3145 3145 3144 3143 3142 3141 3140 3139 3138 3137 3136 3135 3135 3134 3133 3132 3132 3131 3130 3129 3127 3126 3125 3124 3123 3122 3122 3121 3120 3120 3120 3119 3118 3117 3116 3116 3115 3115 3114 3112 3111 3111 3110 3109 3109 3108 3107 3107 3106 3106 3105 3105 3104 3103 3102 3101 3100 3100 3099 3099 3098 3097 3096 3096 3095 3094 3094 3093 3093 3092 3092 3091 3091 3090 3089 3089 3088 3088 3087 3087 3087 3086 3086 3086 3086 3085 3085 3085 3084 3084 3083 3083
3152 3151 3151 3150 3149 3148 3147 3146 3146 3145 3144 3144 3143 3142 3141 3140 3139 3138 3137 3136 3135 3134 3134 3133 3132 3131 3130 3130 3129 3128 3127 3126 3124 3123 3121 3121 3119 3118 3118 3117 3117 3117 3116 3116 3115 3114 3113 3113 3112 3111 3110 3109 3108 3107 3107 3106 3106 3105 3104 3104 3103 3102 3102 3101 3100 3099 3098 3097 3097 3096 3095 3095 3094 3093 3092 3091 3091 3091 3090 3089 3089 3088 3088 3087 3086 3086 3085 3085 3084 3084 3083 3083 3082 3082 3082 3082 3081 3081 3081 3080 3080 3080 3079
3151 3150 3149 3149 3148 3147 3146 3145 3144 3144 3143 3142 3141 3141 3140 3139 3138 3137 3136 3135 3134 3133 3132 3131 3130 3129 3128 3128 3127 3126 3125 3124 3122 3120 3119 3118 3116 3115 3114 3113 3113 3113 3113 3113 3112 3111 3111 3110 3109 3108 3107 3106 3105 3105 3104 3104 3103 3102 3102 3101 3100 3100 3099 3098 3097 3096 3095 3094 3094 3093 3092 3091 3091 3090 3089 3088 3087 3087 3086 3086 3085 3085 3084 3084 3083 3082 3082 3081 3081 3080 3080 3079 3079 3078 3078 3078 3077 3077 3077 3076 3076 3076 3076
3150 3149 3148 3147 3146 3146 3145 3144 3143 3142 3142 3141 3140 3139 3138 3137 3136 3135 3134 3133 3132 3131 3130 3129 3128 3128 3127 3126 3125 3124 3123 3122 3120 3118 3116 3115 3114 3113 3111 3110 3109 3109 3108 3108 3109 3109 3108 3106 3105 3104 3103 3103 3102 3102 3101 3101 3100 3099 3099 3098 3097 3096 3096 3095 3094 3093 3092 3091 3091 3090 3089 3088 3087 3086 3085 3085 3084 3083 3083 3082 3081 3081 3080 3080 3079 3079 3078 3078 3077 3076 3076 3075 3075 3074 3074 3074 3073 3073 3072 3072 3072 3071 3071
3149 3148 3147 3146 3145 3144 3144 3143 3142 3141 3140 3140 3139 3138 3137 3136 3135 3134 3133 3132 3131 3130 3128 3127 3126 3126 3125 3124 3123 3122 3121 3120 3118 3116 3114 3113 3111 3110 3109 3107 3106 3104 3104 3102 3103 3104 3105 3103 3101 3100 3100 3099 3098 3098 3097 3097 3096 3096 3095 3095 3094 3093 3092 3091 3090 3089 3089 3088 3087 3086 3086 3085 3084 3083 3082 3081 3081 3080 3079 3078 3078 3077 3076 3076 3076 3075 3075 3074 3074 3073 3072 3072 3071 3071 3070 3070 3069 3069 3068 3068 3067 3067 3067
3147 3147 3146 3145 3144 3143 3142 3141 3141 3140 3139 3138 3137 3137 3136 3135 3134 3133 3132 3131 3129 3128 3127 3126 3125 3123 3123 3122 3121 3120 3119 3118 3116 3115 3113 3111 3109 3107 3106 3105 3103 3102 3100 3099 3098 3098 3099 3099 3097 3096 3096 3096 3094 3094 3094 3093 3092 3092 3091 3091 3090 3090 3089 3088 3087 3086 3085 3085 3084 3083 3082 3081 3081 3080 3078 3078 3077 3076 3076 3075 3074 3073 3073 3072 3072 3071 3071 3071 3070 3070 3069 3068 3068 3067 3066 3066 3066 3065 3064 3064 3063 3063 3063
3146 3146 3145 3144 3143 3142 3141 3140 3139 3138 3137 3136 3136 3135 3134 3133 3132 3131 3130 3129 3128 3126 3125 3124 3123 3121 3120 3119 3119 3118 3117 3116 3115 3113 3111 3109 3107 3105 3103 3102 3101 3099 3098 3096 3095 3094 3093 3093 3092 3092 3093 3092 3091 3089 3090 3089 3088 3088 3087 3087 3086 3086 3085 3085 3083 3083 3082 3081 3081 3080 3079 3078 3077 3076 3075 3074 3073 3073 3072 3071 3071 3070 3069 3068 3068 3067 3067 3067 3066 3066 3065 3065 3064 3064 3063 3063 3062 3061 3061 3060 3059 3059 3058
3145 3144 3143 3142 3141 3141 3140 3139 3138 3137 3136 3135 3134 3133 3132 3131 3130 3129 3128 3127 3126 3124 3123 3122 3121 3119 3118 3116 3116 3115 3115 3114 3113 3111 3109 3107 3105 3103 3101 3100 3098 3096 3094 3093 3092 3091 3090 3089 3087 3087 3089 3089 3086 3085 3086 3085 3084 3084 3083 3083 3082 3082 3081 3081 3080 3079 3078 3078 3077 3076 3076 3075 3074 3073 3072 3071 3070 3069 3069 3068 3067 3066 3066 3065 3064 3064 3063 3063 3063 3062 3061 3061 3061 3060 3060 3059 3059 3058 3057 3056 3056 3055 3054
3144 3143 3142 3141 3140 3139 3138 3137 3136 3135 3134 3133 3132 3131 3130 3129 3128 3127 3126 3125 3123 3122 3121 3120 3118 3117 3116 3114 3113 3112 3112 3111 3110 3109 3107 3105 3104 3102 3100 3098 3096 3094 3092 3091 3089 3088 3087 3086 3084 3082 3082 3085 3084 3081 3081 3081 3081 3080 3080 3079 3078 3078 3077 3076 3076 3076 3075 3074 3074 3073 3072 3071 3070 3069 3068 3067 3066 3066 3065 3064 3064 3063 3062 3061 3061 3060 3060 3059 3059 3058 3058 3057 3057 3056 3056 3056 3055 3054 3054 3053 3052 3051 3051
3142 3141 3141 3139 3138 3137 3136 3136 3135 3133 3132 3131 3130 3129 3128 3127 3126 3125 3124 3122 3121 3120 3118 3117 3116 3115 3113 3111 3110 3109 3108 3108 3107 3106 3105 3103 3101 3100 3099 3096 3094 3092 3091 3089 3087 3085 3083 3082 3081 3079 3076 3077 3079 3080 3078 3076 3076 3076 3076 3075 3075 3074 3073 3072 3072 3072 3071 3071 3070 3069 3068 3067 3066 3065 3064 3063 3063 3062 3061 3061 3060 3059 3059 3058 3057 3056 3056 3056 3055 3054 3054 3053 3053 3053 3053 3052 3052 3051 3050 3049 3049 3048 3047
3141 3140 3139 3138 3137 3136 3135 3134 3133 3131 3131 3129 3128 3127 3126 3125 3124 3123 3121 3120 3119 3117 3116 3115 3113 3112 3111 3109 3107 3106 3105 3105 3104 3103 3101 3101 3099 3098 3096 3095 3093 3091 3089 3087 3085 3083 3081 3079 3077 3076 3074 3071 3071 3074 3076 3073 3072 3071 3071 3071 3071 3070 3069 3068 3068 3068 3067 3067 3066 3065 3064 3063 3062 3061 3060 3059 3059 3058 3057 3057 3056 3056 3055 3054 3054 3053 3052 3052 3051 3051 3050 3050 3049 3049 3049 3049 3048 3047 3046 3046 3045 3044 3044
3139 3138 3137 3136 3135 3134 3133 3132 3131 3130 3129 3127 3126 3125 3124 3123 3122 3120 3119 3118 3116 3115 3114 3112 3111 3110 3108 3106 3105 3103 3102 3101 3101 3100 3098 3097 3096 3096 3094 3092 3090 3089 3087 3085 3084 3081 3079 3077 3075 3073 3071 3068 3066 3065 3067 3070 3069 3067 3067 3067 3066 3065 3064 3064 3064 3063 3063 3062 3062 3061 3060 3059 3058 3057 3056 3055 3054 3054 3053 3053 3052 3052 3051 3051 3050 3049 3049 3048 3047 3047 3046 3046 3046 3046 3045 3045 3044 3044 3043 3042 3041 3041 3040
3137 3136 3136 3134 3133 3132 3131 3130 3129 3128 3126 3126 3124 3123 3122 3121 3119 3118 3117 3116 3114 3113 3111 3110 3109 3107 3106 3104 3103 3101 3099 3098 3098 3097 3096 3094 3093 3092 3091 3089 3087 3086 3085 3083 3081 3080 3078 3076 3074 3072 3069 3066 3063 3060 3059 3061 3063 3063 3062 3062 3061 3060 3060 3060 3059 3059 3058 3058 3057 3057 3056 3055 3054 3053 3052 3051 3051 3050 3049 3049 3049 3048 3047 3047 3046 3046 3045 3044 3044 3043 3043 3042 3042 3042 3041 3041 3041 3040 3039 3038 3038 3037 3037